Location: Katzenstein
(51.7484°N, 10.2155°E)
Time: 05:44:32
(UTC+00:00)

DMSP B5D1-3 - Pass Details

Date: 17 February 2020
Orbit: 768 x 780 km, 98.5° (Epoch: 28 March)

Event Time Altitude Azimuth Distance (km) Brightness Sun altitude
Rises 05:12:29 0° 172° (S) 3,227 7.9 -12.7°
Reaches altitude 10° 05:14:49 10° 176° (S) 2,305 7.1 -12.4°
Maximum altitude 05:19:51 64° 258° (WSW) 852 4.5 -11.6°
Drops below altitude 10° 05:24:57 10° 340° (NNW) 2,325 6.7 -10.8°
Sets 05:27:18 0° 343° (NNW) 3,258 7.5 -10.4°
